Time,TemperatureF,DewpointF,PressureIn,WindDirection,WindDirectionDegrees,WindSpeedMPH,WindSpeedGustMPH,Humidity,HourlyPrecipIn,Conditions,Clouds,dailyrainin,SolarRadiationWatts/m^2,SoftwareType,DateUTC
2013-02-06 00:04:00,42.8,39.2,29.62,SSW,192,16.1,16.1,87,0.00,RA,,0.00,0.0,WeatherDisplay:10.37,2013-02-06 00:04:00,
2013-02-06 00:09:00,42.6,39.0,29.63,SSW,193,11.5,11.5,87,0.00,RA,,0.00,0.0,WeatherDisplay:10.37,2013-02-06 00:09:00,
2013-02-06 00:15:00,42.5,38.9,29.64,North,353,8.1,8.1,87,0.00,CLR,,0.00,0.0,WeatherDisplay:10.37,2013-02-06 00:15:00,
2013-02-06 00:20:00,42.3,38.7,29.64,North,353,10.4,10.4,87,0.00,CLR,,0.00,0.0,WeatherDisplay:10.37,2013-02-06 00:20:00,
2013-02-06 00:25:00,42.2,38.6,29.64,North,350,7.0,7.0,87,0.00,CLR,,0.00,0.0,WeatherDisplay:10.37,2013-02-06 00:25:00,
2013-02-06 00:30:00,42.1,38.5,29.65,North,0,11.5,11.5,87,0.00,CLR,,0.00,0.0,WeatherDisplay:10.37,2013-02-06 00:30:00,
2013-02-06 00:35:00,42.1,38.5,29.66,NNW,339,13.8,13.8,87,0.00,CLR,,0.00,0.0,WeatherDisplay:10.37,2013-02-06 00:35:00,
2013-02-06 00:41:00,42.1,38.2,29.66,SE,134,11.5,11.5,86,0.00,CLR,,0.00,0.0,WeatherDisplay:10.37,2013-02-06 00:41:00,
2013-02-06 00:46:00,42.1,38.2,29.66,North,0,11.5,11.5,86,0.00,CLR,,0.00,0.0,WeatherDisplay:10.37,2013-02-06 00:46:00,
2013-02-06 00:51:00,42.2,38.0,29.67,NNW,347,12.7,12.7,85,0.00,CLR,,0.00,0.0,WeatherDisplay:10.37,2013-02-06 00:51:00,
2013-02-06 00:56:00,42.2,38.3,29.67,NW,326,10.4,10.4,86,0.00,CLR,,0.00,0.0,WeatherDisplay:10.37,2013-02-06 00:56:00,
2013-02-06 01:01:00,42.3,38.1,29.68,NNW,346,11.5,11.5,85,0.00,CLR,,0.00,0.0,WeatherDisplay:10.37,2013-02-06 01:01:00,
2013-02-06 01:07:00,42.2,38.0,29.68,NNW,342,10.4,10.4,85,0.00,CLR,,0.00,0.0,WeatherDisplay:10.37,2013-02-06 01:07:00,
2013-02-06 01:12:00,42.2,38.0,29.68,North,350,12.0,12.0,85,0.00,CLR,,0.00,0.0,WeatherDisplay:10.37,2013-02-06 01:12:00,
2013-02-06 01:17:00,42.2,37.7,29.68,North,349,6.9,6.9,84,0.00,CLR,,0.00,0.0,WeatherDisplay:10.37,2013-02-06 01:17:00,
2013-02-06 01:22:00,42.1,37.3,29.68,NNW,344,12.7,12.7,83,0.00,CLR,,0.00,0.0,WeatherDisplay:10.37,2013-02-06 01:22:00,
2013-02-06 01:27:00,41.9,37.1,29.68,SE,136,11.0,11.0,83,0.00,CLR,,0.00,0.0,WeatherDisplay:10.37,2013-02-06 01:27:00,
2013-02-06 01:33:00,41.9,37.1,29.69,SSE,164,11.5,11.5,83,0.00,CLR,,0.00,0.0,WeatherDisplay:10.37,2013-02-06 01:33:00,
2013-02-06 01:38:00,41.9,36.5,29.69,South,171,18.0,18.0,81,0.00,CLR,,0.00,0.0,WeatherDisplay:10.37,2013-02-06 01:38:00,
2013-02-06 01:43:00,41.9,36.5,29.70,NNW,342,11.5,11.5,81,0.00,CLR,,0.00,0.0,WeatherDisplay:10.37,2013-02-06 01:43:00,
2013-02-06 01:48:00,41.8,36.1,29.70,SSW,200,16.1,16.1,80,0.00,CLR,,0.00,0.0,WeatherDisplay:10.37,2013-02-06 01:48:00,
2013-02-06 01:53:00,41.6,35.9,29.71,SE,137,12.7,12.7,80,0.00,CLR,,0.00,0.0,WeatherDisplay:10.37,2013-02-06 01:53:00,
2013-02-06 01:58:00,41.6,36.2,29.71,NNW,346,12.0,12.0,81,0.00,CLR,,0.00,0.0,WeatherDisplay:10.37,2013-02-06 01:58:00,
2013-02-06 02:03:00,41.5,36.1,29.72,North,353,11.5,11.5,81,0.00,CLR,,0.00,0.0,WeatherDisplay:10.37,2013-02-06 02:03:00,
2013-02-06 02:09:00,41.2,35.8,29.73,SE,134,10.4,10.4,81,0.00,CLR,,0.00,0.0,WeatherDisplay:10.37,2013-02-06 02:09:00,
2013-02-06 02:14:00,41.2,35.8,29.74,SE,131,11.5,11.5,81,0.00,CLR,,0.00,0.0,WeatherDisplay:10.37,2013-02-06 02:14:00,
2013-02-06 02:19:00,41.1,36.0,29.74,SE,141,8.1,8.1,82,0.00,CLR,,0.00,0.0,WeatherDisplay:10.37,2013-02-06 02:19:00,
2013-02-06 02:24:00,40.9,35.8,29.75,SE,134,11.5,11.5,82,0.00,CLR,,0.00,0.0,WeatherDisplay:10.37,2013-02-06 02:24:00,
2013-02-06 02:29:00,40.9,36.1,29.75,NNW,346,11.5,11.5,83,0.00,CLR,,0.00,0.0,WeatherDisplay:10.37,2013-02-06 02:29:00,
2013-02-06 02:35:00,40.8,36.0,29.75,NNW,344,6.0,6.9,83,0.00,CLR,,0.00,0.0,WeatherDisplay:10.37,2013-02-06 02:35:00,
2013-02-06 02:40:00,40.6,36.1,29.76,North,357,8.1,8.1,84,0.00,CLR,,0.00,0.0,WeatherDisplay:10.37,2013-02-06 02:40:00,
2013-02-06 02:45:00,40.5,36.0,29.76,SE,133,8.1,8.1,84,0.00,CLR,,0.00,0.0,WeatherDisplay:10.37,2013-02-06 02:45:00,
2013-02-06 02:50:00,40.3,36.1,29.76,NNW,343,11.0,11.0,85,0.00,CLR,,0.00,0.0,WeatherDisplay:10.37,2013-02-06 02:50:00,
2013-02-06 02:55:00,40.3,36.1,29.76,North,357,10.4,10.4,85,0.00,CLR,,0.00,0.0,WeatherDisplay:10.37,2013-02-06 02:55:00,
2013-02-06 03:00:00,40.2,36.1,29.77,North,357,11.5,11.5,85,0.00,CLR,,0.00,0.0,WeatherDisplay:10.37,2013-02-06 03:00:00,
2013-02-06 03:05:00,40.1,36.0,29.77,North,357,8.1,8.1,85,0.00,CLR,,0.00,0.0,WeatherDisplay:10.37,2013-02-06 03:05:00,
2013-02-06 03:10:00,40.1,36.0,29.77,NNW,329,6.9,6.9,85,0.00,CLR,,0.00,0.0,WeatherDisplay:10.37,2013-02-06 03:10:00,
2013-02-06 03:16:00,39.9,35.8,29.78,North,353,5.8,5.8,85,0.00,CLR,,0.00,0.0,WeatherDisplay:10.37,2013-02-06 03:16:00,
2013-02-06 03:21:00,39.9,35.8,29.78,North,349,6.9,6.9,85,0.00,CLR,,0.00,0.0,WeatherDisplay:10.37,2013-02-06 03:21:00,
2013-02-06 03:26:00,39.9,35.8,29.78,NNW,332,13.0,13.0,85,0.00,CLR,,0.00,0.0,WeatherDisplay:10.37,2013-02-06 03:26:00,
2013-02-06 03:31:00,40.1,35.7,29.79,SE,141,11.5,11.5,84,0.00,CLR,,0.00,0.0,WeatherDisplay:10.37,2013-02-06 03:31:00,
2013-02-06 03:36:00,40.2,35.4,29.79,North,350,10.4,10.4,83,0.00,CLR,,0.00,0.0,WeatherDisplay:10.37,2013-02-06 03:36:00,
2013-02-06 03:41:00,40.1,35.4,29.80,SE,133,8.1,8.1,83,0.00,CLR,,0.00,0.0,WeatherDisplay:10.37,2013-02-06 03:41:00,
2013-02-06 03:46:00,39.9,35.2,29.80,North,356,6.9,6.9,83,0.00,CLR,,0.00,0.0,WeatherDisplay:10.37,2013-02-06 03:46:00,
2013-02-06 03:52:00,39.9,35.2,29.80,North,0,8.0,8.0,83,0.00,CLR,,0.00,0.0,WeatherDisplay:10.37,2013-02-06 03:52:00,
2013-02-06 03:57:00,39.8,35.1,29.80,North,356,12.7,12.7,83,0.00,CLR,,0.00,0.0,WeatherDisplay:10.37,2013-02-06 03:57:00,
2013-02-06 04:02:00,39.8,35.1,29.80,NNW,344,8.1,8.1,83,0.00,CLR,,0.00,0.0,WeatherDisplay:10.37,2013-02-06 04:02:00,
2013-02-06 04:07:00,39.8,35.4,29.81,NNW,342,6.0,6.0,84,0.00,CLR,,0.00,0.0,WeatherDisplay:10.37,2013-02-06 04:07:00,
2013-02-06 04:12:00,39.8,35.4,29.81,South,188,8.1,8.1,84,0.00,CLR,,0.00,0.0,WeatherDisplay:10.37,2013-02-06 04:12:00,
2013-02-06 04:17:00,39.6,35.2,29.81,North,350,7.0,7.0,84,0.00,CLR,,0.00,0.0,WeatherDisplay:10.37,2013-02-06 04:17:00,
2013-02-06 04:23:00,39.5,35.7,29.82,SE,143,11.5,11.5,86,0.00,CLR,,0.00,0.0,WeatherDisplay:10.37,2013-02-06 04:23:00,
2013-02-06 04:28:00,39.3,35.5,29.82,North,353,6.9,6.9,86,0.00,CLR,,0.00,0.0,WeatherDisplay:10.37,2013-02-06 04:28:00,
2013-02-06 04:33:00,39.2,35.4,29.82,North,0,9.2,9.2,86,0.00,CLR,,0.00,0.0,WeatherDisplay:10.37,2013-02-06 04:33:00,
2013-02-06 04:38:00,39.3,35.5,29.83,NNW,340,11.5,11.5,86,0.00,CLR,,0.00,0.0,WeatherDisplay:10.37,2013-02-06 04:38:00,
2013-02-06 04:43:00,39.6,35.8,29.83,NW,316,17.3,17.3,86,0.00,CLR,,0.00,0.0,WeatherDisplay:10.37,2013-02-06 04:43:00,
2013-02-06 04:48:00,39.8,36.0,29.83,NNW,346,13.8,13.8,86,0.00,CLR,,0.00,0.0,WeatherDisplay:10.37,2013-02-06 04:48:00,
2013-02-06 04:53:00,39.8,36.0,29.84,NNW,346,8.1,8.1,86,0.00,CLR,,0.00,0.0,WeatherDisplay:10.37,2013-02-06 04:53:00,
2013-02-06 04:59:00,39.5,35.7,29.84,NNW,335,12.0,12.0,86,0.00,CLR,,0.00,0.0,WeatherDisplay:10.37,2013-02-06 04:59:00,
2013-02-06 05:00:00,39.5,35.7,29.84,North,0,11.5,11.5,86,0.00,CLR,,0.00,0.0,WeatherDisplay:10.37,2013-02-06 05:00:00,
2013-02-06 05:04:00,39.3,35.8,29.84,North,354,10.4,10.4,87,0.00,CLR,,0.00,0.0,WeatherDisplay:10.37,2013-02-06 05:04:00,
2013-02-06 05:10:00,39.5,36.0,29.84,NNW,336,17.3,17.3,87,0.00,CLR,,0.00,0.0,WeatherDisplay:10.37,2013-02-06 05:10:00,
2013-02-06 05:15:00,39.5,35.7,29.84,NW,315,13.8,13.8,86,0.00,CLR,,0.00,0.0,WeatherDisplay:10.37,2013-02-06 05:15:00,
2013-02-06 05:20:00,39.8,35.7,29.85,North,0,17.3,17.3,85,0.00,CLR,,0.00,0.0,WeatherDisplay:10.37,2013-02-06 05:20:00,
2013-02-06 05:25:00,39.8,35.4,29.86,NW,325,16.1,16.1,84,0.00,CLR,,0.00,0.0,WeatherDisplay:10.37,2013-02-06 05:25:00,
2013-02-06 05:30:00,39.8,35.4,29.86,NNW,337,11.5,11.5,84,0.00,CLR,,0.00,0.0,WeatherDisplay:10.37,2013-02-06 05:30:00,
2013-02-06 05:35:00,39.6,35.5,29.86,North,357,8.1,8.1,85,0.00,CLR,,0.00,0.0,WeatherDisplay:10.37,2013-02-06 05:35:00,
2013-02-06 05:40:00,39.3,35.2,29.87,NNW,337,5.8,5.8,85,0.00,CLR,,0.00,0.0,WeatherDisplay:10.37,2013-02-06 05:40:00,
2013-02-06 05:46:00,39.2,35.4,29.87,North,359,6.9,6.9,86,0.00,CLR,,0.00,0.0,WeatherDisplay:10.37,2013-02-06 05:46:00,
2013-02-06 05:51:00,39.1,35.3,29.88,NNW,340,8.1,8.1,86,0.00,CLR,,0.00,0.0,WeatherDisplay:10.37,2013-02-06 05:51:00,
2013-02-06 05:56:00,38.9,35.1,29.88,NNW,339,8.1,8.1,86,0.00,CLR,,0.00,0.0,WeatherDisplay:10.37,2013-02-06 05:56:00,
2013-02-06 06:01:00,38.9,34.8,29.88,North,356,10.4,10.4,85,0.00,CLR,,0.00,0.0,WeatherDisplay:10.37,2013-02-06 06:01:00,
2013-02-06 06:06:00,38.9,34.8,29.88,North,354,7.0,7.0,85,0.00,CLR,,0.00,0.0,WeatherDisplay:10.37,2013-02-06 06:06:00,
2013-02-06 06:11:00,38.9,34.8,29.89,North,350,4.6,4.6,85,0.00,CLR,,0.00,0.0,WeatherDisplay:10.37,2013-02-06 06:11:00,
2013-02-06 06:16:00,38.9,34.8,29.89,NNW,347,8.1,8.1,85,0.00,CLR,,0.00,0.0,WeatherDisplay:10.37,2013-02-06 06:16:00,
2013-02-06 06:21:00,38.9,34.5,29.89,North,353,3.5,3.5,84,0.00,CLR,,0.00,0.0,WeatherDisplay:10.37,2013-02-06 06:21:00,
2013-02-06 06:26:00,38.8,34.4,29.89,NNW,344,5.8,5.8,84,0.00,CLR,,0.00,0.0,WeatherDisplay:10.37,2013-02-06 06:26:00,
2013-02-06 06:31:00,38.6,34.5,29.89,North,353,4.6,4.6,85,0.00,CLR,,0.00,0.0,WeatherDisplay:10.37,2013-02-06 06:31:00,
2013-02-06 06:36:00,38.5,34.4,29.89,North,359,3.5,4.0,85,0.00,CLR,,0.00,0.0,WeatherDisplay:10.37,2013-02-06 06:36:00,
2013-02-06 06:41:00,38.5,34.4,29.90,SSE,165,5.8,5.8,85,0.00,CLR,,0.00,0.0,WeatherDisplay:10.37,2013-02-06 06:41:00,
2013-02-06 06:46:00,38.5,34.4,29.90,North,0,6.9,6.9,85,0.00,CLR,,0.00,0.0,WeatherDisplay:10.37,2013-02-06 06:46:00,
2013-02-06 06:51:00,38.5,34.4,29.90,North,353,5.8,5.8,85,0.00,CLR,,0.00,0.0,WeatherDisplay:10.37,2013-02-06 06:51:00,
2013-02-06 06:56:00,38.3,34.2,29.90,SSE,151,4.0,4.4,85,0.00,CLR,,0.00,0.0,WeatherDisplay:10.37,2013-02-06 06:56:00,
2013-02-06 07:01:00,38.3,34.2,29.91,NNW,344,3.5,3.5,85,0.00,CLR,,0.00,0.0,WeatherDisplay:10.37,2013-02-06 07:01:00,
2013-02-06 07:06:00,38.2,34.1,29.91,NNW,344,2.3,2.3,85,0.00,CLR,,0.00,0.0,WeatherDisplay:10.37,2013-02-06 07:06:00,
2013-02-06 07:11:00,38.2,34.1,29.91,SSE,168,6.0,6.0,85,0.00,CLR,,0.00,0.0,WeatherDisplay:10.37,2013-02-06 07:11:00,
2013-02-06 07:16:00,38.0,33.9,29.91,NNW,343,5.8,5.8,85,0.00,CLR,,0.00,0.0,WeatherDisplay:10.37,2013-02-06 07:16:00,
2013-02-06 07:21:00,38.0,34.2,29.92,North,357,5.8,5.8,86,0.00,CLR,,0.00,0.0,WeatherDisplay:10.37,2013-02-06 07:21:00,
2013-02-06 07:26:00,38.2,34.4,29.92,North,350,5.8,5.8,86,0.00,CLR,,0.00,0.0,WeatherDisplay:10.37,2013-02-06 07:26:00,
2013-02-06 07:31:00,38.2,34.1,29.93,NNW,339,3.5,3.5,85,0.00,CLR,,0.00,0.0,WeatherDisplay:10.37,2013-02-06 07:31:00,
2013-02-06 07:36:00,38.0,34.2,29.93,North,357,3.5,3.5,86,0.00,CLR,,0.00,0.0,WeatherDisplay:10.37,2013-02-06 07:36:00,
2013-02-06 07:41:00,37.9,34.1,29.93,NNW,340,3.5,3.5,86,0.00,CLR,,0.00,0.0,WeatherDisplay:10.37,2013-02-06 07:41:00,
2013-02-06 07:46:00,37.8,34.0,29.94,NNW,342,2.3,2.3,86,0.00,CLR,,0.00,0.0,WeatherDisplay:10.37,2013-02-06 07:46:00,
2013-02-06 07:51:00,37.6,34.1,29.94,NNW,336,5.8,5.8,87,0.00,CLR,,0.00,5.0,WeatherDisplay:10.37,2013-02-06 07:51:00,
2013-02-06 07:56:00,37.5,34.3,29.94,North,352,3.5,3.5,88,0.00,CLR,,0.00,5.0,WeatherDisplay:10.37,2013-02-06 07:56:00,
2013-02-06 08:01:00,37.3,34.1,29.94,North,352,2.3,2.3,88,0.00,OVC,,0.00,7.0,WeatherDisplay:10.37,2013-02-06 08:01:00,
2013-02-06 08:06:00,37.2,34.0,29.94,North,349,2.3,2.3,88,0.00,OVC,,0.00,7.0,WeatherDisplay:10.37,2013-02-06 08:06:00,
2013-02-06 08:11:00,37.0,34.1,29.94,North,350,2.3,2.3,89,0.00,OVC,,0.00,11.0,WeatherDisplay:10.37,2013-02-06 08:11:00,
2013-02-06 08:16:00,36.9,34.0,29.95,NNW,347,0.0,0.0,89,0.00,OVC,,0.00,12.0,WeatherDisplay:10.37,2013-02-06 08:16:00,
2013-02-06 08:21:00,36.8,33.9,29.95,NNW,335,0.0,0.2,89,0.00,OVC,,0.00,18.0,WeatherDisplay:10.37,2013-02-06 08:21:00,
2013-02-06 08:26:00,36.8,33.9,29.95,North,356,2.3,2.3,89,0.00,OVC,,0.00,21.0,WeatherDisplay:10.37,2013-02-06 08:26:00,
2013-02-06 08:31:00,36.9,34.0,29.95,North,349,3.5,3.5,89,0.00,BKN,,0.00,26.0,WeatherDisplay:10.37,2013-02-06 08:31:00,
2013-02-06 08:36:00,37.0,34.1,29.96,NNW,344,3.0,3.0,89,0.00,BKN,,0.00,37.0,WeatherDisplay:10.37,2013-02-06 08:36:00,
2013-02-06 08:41:00,37.3,34.4,29.96,SSE,151,5.8,5.8,89,0.00,BKN,,0.00,42.0,WeatherDisplay:10.37,2013-02-06 08:41:00,
2013-02-06 08:46:00,37.8,34.6,29.96,NNW,346,10.4,10.4,88,0.00,SCT,,0.00,49.0,WeatherDisplay:10.37,2013-02-06 08:46:00,
2013-02-06 08:51:00,38.0,34.8,29.96,North,353,9.2,9.2,88,0.00,SCT,,0.00,63.0,WeatherDisplay:10.37,2013-02-06 08:51:00,
2013-02-06 08:56:00,38.6,34.8,29.96,North,354,11.5,11.5,86,0.00,SCT,,0.00,72.0,WeatherDisplay:10.37,2013-02-06 08:56:00,
2013-02-06 09:02:00,39.1,35.0,29.97,North,349,8.1,8.1,85,0.00,SCT,,0.00,81.0,WeatherDisplay:10.37,2013-02-06 09:02:00,
2013-02-06 09:07:00,39.3,34.9,29.97,North,0,5.8,5.8,84,0.00,SCT,,0.00,90.0,WeatherDisplay:10.37,2013-02-06 09:07:00,
2013-02-06 09:12:00,39.3,34.9,29.97,NNW,343,6.9,6.9,84,0.00,FEW,,0.00,99.0,WeatherDisplay:10.37,2013-02-06 09:12:00,
2013-02-06 09:17:00,39.3,34.9,29.98,NNW,333,5.8,5.8,84,0.00,FEW,,0.00,109.0,WeatherDisplay:10.37,2013-02-06 09:17:00,
2013-02-06 09:22:00,39.3,35.2,29.98,NNW,340,6.9,6.9,85,0.00,FEW,,0.00,118.0,WeatherDisplay:10.37,2013-02-06 09:22:00,
2013-02-06 09:27:00,39.3,35.2,29.98,NNW,344,6.9,6.9,85,0.00,FEW,,0.00,125.0,WeatherDisplay:10.37,2013-02-06 09:27:00,
2013-02-06 09:32:00,39.3,35.2,29.99,NNW,343,8.1,8.1,85,0.00,FEW,,0.00,135.0,WeatherDisplay:10.37,2013-02-06 09:32:00,
2013-02-06 09:37:00,39.5,35.4,29.99,NNW,344,6.9,6.9,85,0.00,CLR,,0.00,144.0,WeatherDisplay:10.37,2013-02-06 09:37:00,
2013-02-06 09:42:00,39.5,35.4,30.00,NNW,343,4.6,4.6,85,0.00,CLR,,0.00,155.0,WeatherDisplay:10.37,2013-02-06 09:42:00,
2013-02-06 09:47:00,39.6,35.5,30.00,North,349,6.9,6.9,85,0.00,CLR,,0.00,160.0,WeatherDisplay:10.37,2013-02-06 09:47:00,
2013-02-06 09:52:00,39.8,36.0,30.00,North,354,11.5,11.5,86,0.00,CLR,,0.00,165.0,WeatherDisplay:10.37,2013-02-06 09:52:00,
2013-02-06 09:57:00,39.9,35.8,30.00,NNW,335,5.8,5.8,85,0.00,CLR,,0.00,176.0,WeatherDisplay:10.37,2013-02-06 09:57:00,
2013-02-06 10:02:00,40.1,36.0,30.00,North,357,6.0,6.0,85,0.00,CLR,,0.00,183.0,WeatherDisplay:10.37,2013-02-06 10:02:00,
2013-02-06 10:07:00,40.3,36.1,30.00,SSE,165,9.2,9.2,85,0.00,CLR,,0.00,194.0,WeatherDisplay:10.37,2013-02-06 10:07:00,
2013-02-06 10:12:00,40.6,36.1,30.01,NNW,347,13.8,13.8,84,0.00,CLR,,0.00,201.0,WeatherDisplay:10.37,2013-02-06 10:12:00,
2013-02-06 10:18:00,40.9,36.1,30.01,North,349,6.9,6.9,83,0.00,CLR,,0.00,208.0,WeatherDisplay:10.37,2013-02-06 10:18:00,
2013-02-06 10:23:00,41.1,36.3,30.01,NNW,339,7.0,7.0,83,0.00,CLR,,0.00,216.0,WeatherDisplay:10.37,2013-02-06 10:23:00,
2013-02-06 10:28:00,41.1,36.3,30.01,NNW,343,13.0,13.0,83,0.00,CLR,,0.00,223.0,WeatherDisplay:10.37,2013-02-06 10:28:00,
2013-02-06 10:33:00,41.2,36.4,30.02,North,353,13.8,13.8,83,0.00,CLR,,0.00,229.0,WeatherDisplay:10.37,2013-02-06 10:33:00,
2013-02-06 10:39:00,41.2,36.1,30.02,SSE,150,13.8,13.8,82,0.00,CLR,,0.00,239.0,WeatherDisplay:10.37,2013-02-06 10:39:00,
2013-02-06 10:44:00,41.3,35.9,30.02,North,359,12.7,12.7,81,0.00,CLR,,0.00,246.0,WeatherDisplay:10.37,2013-02-06 10:44:00,
2013-02-06 10:50:00,41.5,36.4,30.02,NNW,343,17.0,17.0,82,0.00,CLR,,0.00,250.0,WeatherDisplay:10.37,2013-02-06 10:50:00,
2013-02-06 10:55:00,41.8,36.4,30.03,NNW,330,13.0,13.0,81,0.00,CLR,,0.00,253.0,WeatherDisplay:10.37,2013-02-06 10:55:00,
2013-02-06 11:00:00,41.8,36.1,30.02,North,352,12.7,12.7,80,0.00,CLR,,0.00,260.0,WeatherDisplay:10.37,2013-02-06 11:00:00,
2013-02-06 11:05:00,42.1,36.1,30.02,NNW,337,11.5,11.5,79,0.00,CLR,,0.00,264.0,WeatherDisplay:10.37,2013-02-06 11:05:00,
2013-02-06 11:10:00,42.1,36.4,30.03,North,353,13.8,13.8,80,0.00,CLR,,0.00,269.0,WeatherDisplay:10.37,2013-02-06 11:10:00,
2013-02-06 11:15:00,42.2,36.4,30.03,NNW,348,7.0,16.0,80,0.00,CLR,,0.00,274.0,WeatherDisplay:10.37,2013-02-06 11:15:00,
2013-02-06 11:20:00,42.3,36.3,30.03,NNW,347,11.5,11.5,79,0.00,CLR,,0.00,278.0,WeatherDisplay:10.37,2013-02-06 11:20:00,
2013-02-06 11:25:00,42.5,36.4,30.03,North,352,11.5,11.5,79,0.00,CLR,,0.00,283.0,WeatherDisplay:10.37,2013-02-06 11:25:00,
2013-02-06 11:30:00,42.8,36.4,30.03,North,353,11.5,11.5,78,0.00,CLR,,0.00,296.0,WeatherDisplay:10.37,2013-02-06 11:30:00,
2013-02-06 11:35:00,42.9,36.5,30.03,NNW,340,17.3,17.3,78,0.00,CLR,,0.00,301.0,WeatherDisplay:10.37,2013-02-06 11:35:00,
2013-02-06 11:41:00,42.9,36.2,30.04,North,356,13.8,13.8,77,0.00,CLR,,0.00,304.0,WeatherDisplay:10.37,2013-02-06 11:41:00,
2013-02-06 11:46:00,43.1,36.4,30.04,North,352,11.5,11.5,77,0.00,CLR,,0.00,304.0,WeatherDisplay:10.37,2013-02-06 11:46:00,
2013-02-06 11:51:00,42.9,35.2,30.04,NNW,329,16.1,16.1,74,0.00,CLR,,0.00,304.0,WeatherDisplay:10.37,2013-02-06 11:51:00,
2013-02-06 11:56:00,43.1,36.4,30.05,North,353,11.5,11.5,77,0.00,CLR,,0.00,306.0,WeatherDisplay:10.37,2013-02-06 11:56:00,
2013-02-06 12:01:00,43.2,36.1,30.05,NNW,344,11.5,11.5,76,0.00,CLR,,0.00,311.0,WeatherDisplay:10.37,2013-02-06 12:01:00,
2013-02-06 12:07:00,43.2,35.5,30.05,NNW,339,8.0,8.0,74,0.00,CLR,,0.00,326.0,WeatherDisplay:10.37,2013-02-06 12:07:00,
2013-02-06 12:12:00,43.2,35.1,30.05,North,354,13.8,13.8,73,0.00,CLR,,0.00,322.0,WeatherDisplay:10.37,2013-02-06 12:12:00,
2013-02-06 12:17:00,43.5,35.1,30.05,North,350,17.3,17.3,72,0.00,CLR,,0.00,333.0,WeatherDisplay:10.37,2013-02-06 12:17:00,
2013-02-06 12:22:00,43.5,35.8,30.05,SSW,199,4.0,4.0,74,0.00,CLR,,0.00,333.0,WeatherDisplay:10.37,2013-02-06 12:22:00,
2013-02-06 12:27:00,43.6,35.5,30.05,North,357,18.4,18.4,73,0.00,CLR,,0.00,343.0,WeatherDisplay:10.37,2013-02-06 12:27:00,
2013-02-06 12:32:00,43.6,35.9,30.05,NW,325,10.4,10.4,74,0.00,CLR,,0.00,352.0,WeatherDisplay:10.37,2013-02-06 12:32:00,
2013-02-06 12:37:00,43.5,36.4,30.05,SSE,167,5.8,6.0,76,0.00,OVC,,0.00,79.0,WeatherDisplay:10.37,2013-02-06 12:37:00,
2013-02-06 12:42:00,43.2,35.8,30.06,SSE,160,16.1,16.1,75,0.00,CLR,,0.00,345.0,WeatherDisplay:10.37,2013-02-06 12:42:00,
2013-02-06 12:48:00,43.6,36.2,30.06,North,357,8.1,8.1,75,0.00,SCT,,0.00,167.0,WeatherDisplay:10.37,2013-02-06 12:48:00,
2013-02-06 12:53:00,43.5,35.8,30.06,North,349,8.1,8.1,74,0.00,BKN,,0.00,102.0,WeatherDisplay:10.37,2013-02-06 12:53:00,
2013-02-06 12:58:00,43.5,36.8,30.06,SSE,157,9.2,9.2,77,0.00,OVC,,0.00,77.0,WeatherDisplay:10.37,2013-02-06 12:58:00,
2013-02-06 13:03:00,43.1,36.0,30.06,NNW,346,5.0,5.0,76,0.00,CLR,,0.00,331.0,WeatherDisplay:10.37,2013-02-06 13:03:00,
2013-02-06 13:08:00,43.5,36.1,30.06,North,353,8.1,8.1,75,0.00,CLR,,0.00,313.0,WeatherDisplay:10.37,2013-02-06 13:08:00,
2013-02-06 13:13:00,43.5,35.4,30.06,North,0,8.1,8.1,73,0.00,CLR,,0.00,313.0,WeatherDisplay:10.37,2013-02-06 13:13:00,
2013-02-06 13:18:00,43.6,35.9,30.06,NNW,344,11.5,11.5,74,0.00,CLR,,0.00,322.0,WeatherDisplay:10.37,2013-02-06 13:18:00,
2013-02-06 13:23:00,43.6,35.2,30.06,NNW,340,8.1,8.1,72,0.00,SCT,,0.00,130.0,WeatherDisplay:10.37,2013-02-06 13:23:00,
2013-02-06 13:29:00,43.3,34.5,30.07,North,359,11.5,11.5,71,0.00,BKN,,0.00,86.0,WeatherDisplay:10.37,2013-02-06 13:29:00,
2013-02-06 13:34:00,43.3,35.2,30.07,North,354,9.2,9.2,73,0.00,CLR,,0.00,230.0,WeatherDisplay:10.37,2013-02-06 13:34:00,
2013-02-06 13:39:00,43.5,35.1,30.07,North,354,12.7,12.7,72,0.00,CLR,,0.00,308.0,WeatherDisplay:10.37,2013-02-06 13:39:00,
2013-02-06 13:44:00,43.6,34.8,30.07,NNW,343,11.5,11.5,71,0.00,CLR,,0.00,296.0,WeatherDisplay:10.37,2013-02-06 13:44:00,
2013-02-06 13:50:00,43.6,34.8,30.07,SSE,154,13.8,13.8,71,0.00,CLR,,0.00,292.0,WeatherDisplay:10.37,2013-02-06 13:50:00,
2013-02-06 13:55:00,43.6,34.5,30.08,North,350,13.8,13.8,70,0.00,CLR,,0.00,287.0,WeatherDisplay:10.37,2013-02-06 13:55:00,
2013-02-06 14:00:00,44.1,35.3,30.08,SSE,152,6.9,6.9,71,0.00,CLR,,0.00,324.0,WeatherDisplay:10.37,2013-02-06 14:00:00,
2013-02-06 14:05:00,43.9,35.1,30.08,North,349,11.5,11.5,71,0.00,SCT,,0.00,109.0,WeatherDisplay:10.37,2013-02-06 14:05:00,
2013-02-06 14:10:00,43.6,34.8,30.08,SSE,151,12.7,12.7,71,0.00,CLR,,0.00,158.0,WeatherDisplay:10.37,2013-02-06 14:10:00,
2013-02-06 14:15:00,43.6,35.2,30.08,NNW,337,16.1,16.1,72,0.00,CLR,,0.00,285.0,WeatherDisplay:10.37,2013-02-06 14:15:00,
2013-02-06 14:21:00,43.3,35.2,30.08,NNW,344,11.5,11.5,73,0.00,BKN,,0.00,76.0,WeatherDisplay:10.37,2013-02-06 14:21:00,
2013-02-06 14:26:00,43.2,35.5,30.08,North,352,10.4,10.4,74,0.00,BKN,,0.00,77.0,WeatherDisplay:10.37,2013-02-06 14:26:00,
2013-02-06 14:31:00,42.9,34.8,30.08,NNW,347,17.3,17.3,73,0.00,SCT,,0.00,81.0,WeatherDisplay:10.37,2013-02-06 14:31:00,
2013-02-06 14:36:00,42.9,35.2,30.08,North,359,10.4,10.4,74,0.00,OVC,,0.00,70.0,WeatherDisplay:10.37,2013-02-06 14:36:00,
2013-02-06 14:42:00,42.8,34.7,30.08,NNW,343,12.7,12.7,73,0.00,SCT,,0.00,44.0,WeatherDisplay:10.37,2013-02-06 14:42:00,
2013-02-06 14:47:00,42.6,34.5,30.08,NNW,343,8.1,8.1,73,0.00,OVC,,0.00,39.0,WeatherDisplay:10.37,2013-02-06 14:47:00,
2013-02-06 14:52:00,42.5,35.1,30.09,North,353,6.9,6.9,75,0.00,OVC,,0.00,35.0,WeatherDisplay:10.37,2013-02-06 14:52:00,
2013-02-06 14:57:00,42.2,34.5,30.09,North,353,9.2,9.2,74,0.00,OVC,,0.00,39.0,WeatherDisplay:10.37,2013-02-06 14:57:00,
2013-02-06 15:03:00,42.2,34.8,30.09,NNW,337,11.5,11.5,75,0.00,OVC,,0.00,35.0,WeatherDisplay:10.37,2013-02-06 15:03:00,
2013-02-06 15:08:00,42.1,35.1,30.09,NNW,342,8.1,8.1,76,0.00,OVC,,0.00,35.0,WeatherDisplay:10.37,2013-02-06 15:08:00,
2013-02-06 15:13:00,41.9,34.6,30.09,NW,319,8.1,8.1,75,0.00,OVC,,0.00,28.0,WeatherDisplay:10.37,2013-02-06 15:13:00,
2013-02-06 15:18:00,41.9,34.6,30.09,SSE,161,8.1,8.1,75,0.00,OVC,,0.00,30.0,WeatherDisplay:10.37,2013-02-06 15:18:00,
2013-02-06 15:23:00,41.9,34.9,30.09,NNW,342,3.5,3.5,76,0.00,OVC,,0.00,30.0,WeatherDisplay:10.37,2013-02-06 15:23:00,
2013-02-06 15:28:00,41.9,34.9,30.10,NNW,344,6.0,6.0,76,0.00,BKN,,0.00,37.0,WeatherDisplay:10.37,2013-02-06 15:28:00,
2013-02-06 15:33:00,41.9,34.9,30.10,NNW,344,10.4,10.4,76,0.00,SCT,,0.00,39.0,WeatherDisplay:10.37,2013-02-06 15:33:00,
2013-02-06 15:39:00,41.9,35.2,30.10,NNW,347,3.5,3.5,77,0.00,SCT,,0.00,40.0,WeatherDisplay:10.37,2013-02-06 15:39:00,
2013-02-06 15:44:00,41.9,35.2,30.10,NNW,340,6.9,6.9,77,0.00,SCT,,0.00,32.0,WeatherDisplay:10.37,2013-02-06 15:44:00,
2013-02-06 15:49:00,41.9,35.2,30.10,North,352,3.5,3.5,77,0.00,FEW,,0.00,33.0,WeatherDisplay:10.37,2013-02-06 15:49:00,
2013-02-06 15:54:00,41.8,35.1,30.10,NNW,342,3.5,3.5,77,0.00,CLR,,0.00,37.0,WeatherDisplay:10.37,2013-02-06 15:54:00,
2013-02-06 15:59:00,41.8,35.4,30.11,NNW,342,2.3,2.3,78,0.00,CLR,,0.00,28.0,WeatherDisplay:10.37,2013-02-06 15:59:00,
2013-02-06 16:04:00,41.5,35.5,30.10,NNW,340,1.2,1.2,79,0.00,CLR,,0.00,33.0,WeatherDisplay:10.37,2013-02-06 16:04:00,
2013-02-06 16:09:00,41.3,35.3,30.10,NNW,346,3.5,3.5,79,0.00,CLR,,0.00,26.0,WeatherDisplay:10.37,2013-02-06 16:09:00,
2013-02-06 16:14:00,41.3,35.3,30.11,NNW,342,2.3,2.3,79,0.00,CLR,,0.00,40.0,WeatherDisplay:10.37,2013-02-06 16:14:00,
2013-02-06 16:19:00,41.2,35.5,30.11,NNW,342,1.0,0.0,80,0.00,OVC,,0.00,33.0,WeatherDisplay:10.37,2013-02-06 16:19:00,
2013-02-06 16:24:00,41.2,35.5,30.11,NNW,340,3.5,3.5,80,0.00,OVC,,0.00,23.0,WeatherDisplay:10.37,2013-02-06 16:24:00,
2013-02-06 16:29:00,41.2,35.5,30.11,NNW,335,8.1,8.1,80,0.00,OVC,,0.00,21.0,WeatherDisplay:10.37,2013-02-06 16:29:00,
2013-02-06 16:34:00,41.3,35.6,30.11,South,184,4.6,4.6,80,0.00,OVC,,0.00,19.0,WeatherDisplay:10.37,2013-02-06 16:34:00,
2013-02-06 16:40:00,41.2,35.5,30.11,North,359,3.5,3.5,80,0.00,OVC,,0.00,18.0,WeatherDisplay:10.37,2013-02-06 16:40:00,
2013-02-06 16:45:00,41.2,34.9,30.11,North,356,8.1,8.1,78,0.00,OVC,,0.00,16.0,WeatherDisplay:10.37,2013-02-06 16:45:00,
2013-02-06 16:50:00,41.2,34.5,30.11,North,353,8.1,8.1,77,0.00,OVC,,0.00,12.0,WeatherDisplay:10.37,2013-02-06 16:50:00,
2013-02-06 16:55:00,41.2,34.5,30.11,North,349,5.8,5.8,77,0.00,OVC,,0.00,11.0,WeatherDisplay:10.37,2013-02-06 16:55:00,
2013-02-06 17:00:00,41.1,34.4,30.11,NNW,333,4.6,4.6,77,0.00,OVC,,0.00,9.0,WeatherDisplay:10.37,2013-02-06 17:00:00,
2013-02-06 17:05:00,40.9,34.6,30.12,NNW,333,2.3,2.3,78,0.00,OVC,,0.00,7.0,WeatherDisplay:10.37,2013-02-06 17:05:00,
2013-02-06 17:10:00,40.6,34.9,30.12,NNW,330,0.0,0.0,80,0.00,OVC,,0.00,0.0,WeatherDisplay:10.37,2013-02-06 17:10:00,
2013-02-06 17:15:00,40.5,35.1,30.11,NNW,332,0.0,0.0,81,0.00,OVC,,0.00,0.0,WeatherDisplay:10.37,2013-02-06 17:15:00,
2013-02-06 17:20:00,40.2,35.1,30.12,NNW,333,0.0,0.0,82,0.00,OVC,,0.00,0.0,WeatherDisplay:10.37,2013-02-06 17:20:00,
2013-02-06 17:25:00,39.9,35.2,30.12,NNW,333,1.2,1.2,83,0.00,OVC,,0.00,0.0,WeatherDisplay:10.37,2013-02-06 17:25:00,
2013-02-06 17:30:00,39.8,35.4,30.12,NNW,330,1.2,1.2,84,0.00,OVC,,0.00,0.0,WeatherDisplay:10.37,2013-02-06 17:30:00,
2013-02-06 17:35:00,39.5,35.4,30.11,NW,323,2.3,2.3,85,0.00,CLR,,0.00,0.0,WeatherDisplay:10.37,2013-02-06 17:35:00,
2013-02-06 17:40:00,39.3,35.2,30.12,NW,326,1.2,0.0,85,0.00,CLR,,0.00,0.0,WeatherDisplay:10.37,2013-02-06 17:40:00,
2013-02-06 17:46:00,39.2,35.1,30.12,NW,326,1.2,1.2,85,0.00,CLR,,0.00,0.0,WeatherDisplay:10.37,2013-02-06 17:46:00,
2013-02-06 17:51:00,39.2,35.4,30.12,NNW,329,1.2,1.2,86,0.00,CLR,,0.00,0.0,WeatherDisplay:10.37,2013-02-06 17:51:00,
2013-02-06 17:56:00,39.1,35.3,30.12,WNW,302,2.3,0.0,86,0.00,CLR,,0.00,0.0,WeatherDisplay:10.37,2013-02-06 17:56:00,
2013-02-06 18:01:00,39.2,35.4,30.13,NW,309,3.5,3.5,86,0.00,CLR,,0.00,0.0,WeatherDisplay:10.37,2013-02-06 18:01:00,
2013-02-06 18:07:00,39.2,35.4,30.13,NW,311,3.5,0.0,86,0.00,CLR,,0.00,0.0,WeatherDisplay:10.37,2013-02-06 18:07:00,
2013-02-06 18:12:00,39.1,35.3,30.13,NW,305,2.3,2.3,86,0.00,CLR,,0.00,0.0,WeatherDisplay:10.37,2013-02-06 18:12:00,
2013-02-06 18:17:00,39.1,35.3,30.13,SW,236,2.3,2.3,86,0.00,CLR,,0.00,0.0,WeatherDisplay:10.37,2013-02-06 18:17:00,
2013-02-06 18:22:00,38.9,35.1,30.14,NW,306,2.3,2.3,86,0.00,CLR,,0.00,0.0,WeatherDisplay:10.37,2013-02-06 18:22:00,
2013-02-06 18:27:00,39.1,35.3,30.13,NW,304,1.2,1.2,86,0.00,CLR,,0.00,0.0,WeatherDisplay:10.37,2013-02-06 18:27:00,
2013-02-06 18:32:00,38.9,35.1,30.14,WNW,301,1.2,1.2,86,0.00,CLR,,0.00,0.0,WeatherDisplay:10.37,2013-02-06 18:32:00,
2013-02-06 18:37:00,38.9,35.4,30.13,WNW,301,0.0,0.0,87,0.00,CLR,,0.00,0.0,WeatherDisplay:10.37,2013-02-06 18:37:00,
2013-02-06 18:42:00,38.8,35.3,30.13,NW,311,2.3,2.3,87,0.00,CLR,,0.00,0.0,WeatherDisplay:10.37,2013-02-06 18:42:00,
2013-02-06 18:47:00,38.8,35.6,30.14,NW,322,1.2,1.2,88,0.00,CLR,,0.00,0.0,WeatherDisplay:10.37,2013-02-06 18:47:00,
2013-02-06 18:53:00,38.6,35.4,30.14,NW,309,2.0,2.0,88,0.00,CLR,,0.00,0.0,WeatherDisplay:10.37,2013-02-06 18:53:00,
2013-02-06 18:58:00,38.6,35.6,30.14,NW,316,2.3,2.3,89,0.00,CLR,,0.00,0.0,WeatherDisplay:10.37,2013-02-06 18:58:00,
2013-02-06 19:03:00,38.5,35.5,30.14,NW,320,3.5,3.5,89,0.00,CLR,,0.00,0.0,WeatherDisplay:10.37,2013-02-06 19:03:00,
2013-02-06 19:08:00,38.5,35.5,30.14,NW,319,4.6,4.6,89,0.00,CLR,,0.00,0.0,WeatherDisplay:10.37,2013-02-06 19:08:00,
2013-02-06 19:13:00,38.6,35.9,30.14,NW,326,9.2,9.2,90,0.00,CLR,,0.00,0.0,WeatherDisplay:10.37,2013-02-06 19:13:00,
2013-02-06 19:18:00,38.6,36.2,30.14,NNW,333,6.9,6.9,91,0.00,CLR,,0.00,0.0,WeatherDisplay:10.37,2013-02-06 19:18:00,
2013-02-06 19:23:00,38.6,36.2,30.14,NNW,333,5.8,5.8,91,0.00,CLR,,0.00,0.0,WeatherDisplay:10.37,2013-02-06 19:23:00,
2013-02-06 19:29:00,38.6,36.2,30.14,NNW,336,4.6,4.6,91,0.00,CLR,,0.00,0.0,WeatherDisplay:10.37,2013-02-06 19:29:00,
2013-02-06 19:34:00,38.6,36.2,30.14,NW,325,5.8,5.8,91,0.00,CLR,,0.00,0.0,WeatherDisplay:10.37,2013-02-06 19:34:00,
2013-02-06 19:39:00,38.6,36.2,30.14,NW,315,3.5,3.5,91,0.00,CLR,,0.00,0.0,WeatherDisplay:10.37,2013-02-06 19:39:00,
2013-02-06 19:44:00,38.5,36.1,30.14,NNW,332,3.5,3.5,91,0.00,CLR,,0.00,0.0,WeatherDisplay:10.37,2013-02-06 19:44:00,
2013-02-06 19:49:00,38.3,35.9,30.15,NW,322,3.5,3.5,91,0.00,CLR,,0.00,0.0,WeatherDisplay:10.37,2013-02-06 19:49:00,
2013-02-06 19:54:00,38.2,35.8,30.14,WNW,296,2.3,2.3,91,0.00,CLR,,0.00,0.0,WeatherDisplay:10.37,2013-02-06 19:54:00,
2013-02-06 19:59:00,38.0,35.6,30.15,NNW,329,3.0,3.0,91,0.00,CLR,,0.00,0.0,WeatherDisplay:10.37,2013-02-06 19:59:00,
2013-02-06 20:04:00,37.9,35.8,30.15,NNW,328,3.5,3.5,92,0.00,CLR,,0.00,0.0,WeatherDisplay:10.37,2013-02-06 20:04:00,
2013-02-06 20:10:00,37.9,35.8,30.15,NNW,330,2.0,0.0,92,0.00,CLR,,0.00,0.0,WeatherDisplay:10.37,2013-02-06 20:10:00,
2013-02-06 20:15:00,37.9,35.8,30.15,NNW,328,2.0,6.0,92,0.00,CLR,,0.00,0.0,WeatherDisplay:10.37,2013-02-06 20:15:00,
2013-02-06 20:20:00,37.9,35.8,30.14,NW,323,2.3,2.3,92,0.00,CLR,,0.00,0.0,WeatherDisplay:10.37,2013-02-06 20:20:00,
2013-02-06 20:25:00,37.8,35.7,30.14,NW,325,4.6,4.6,92,0.00,CLR,,0.00,0.0,WeatherDisplay:10.37,2013-02-06 20:25:00,
2013-02-06 20:30:00,37.9,35.8,30.14,NNW,335,5.8,5.8,92,0.00,CLR,,0.00,0.0,WeatherDisplay:10.37,2013-02-06 20:30:00,
2013-02-06 20:36:00,37.9,35.8,30.14,NW,323,3.5,3.5,92,0.00,CLR,,0.00,0.0,WeatherDisplay:10.37,2013-02-06 20:36:00,
2013-02-06 20:41:00,37.8,35.4,30.14,NW,323,1.2,1.2,91,0.00,CLR,,0.00,0.0,WeatherDisplay:10.37,2013-02-06 20:41:00,
2013-02-06 20:46:00,37.8,35.4,30.14,NW,325,2.3,2.3,91,0.00,CLR,,0.00,0.0,WeatherDisplay:10.37,2013-02-06 20:46:00,
2013-02-06 20:51:00,37.5,35.1,30.14,NW,320,2.3,2.3,91,0.00,CLR,,0.00,0.0,WeatherDisplay:10.37,2013-02-06 20:51:00,
2013-02-06 20:56:00,37.2,35.1,30.14,NW,323,1.2,1.2,92,0.00,CLR,,0.00,0.0,WeatherDisplay:10.37,2013-02-06 20:56:00,
2013-02-06 21:01:00,37.0,34.9,30.15,NW,316,2.3,2.3,92,0.00,CLR,,0.00,0.0,WeatherDisplay:10.37,2013-02-06 21:01:00,
2013-02-06 21:07:00,36.9,34.8,30.15,NNW,328,5.8,5.8,92,0.00,CLR,,0.00,0.0,WeatherDisplay:10.37,2013-02-06 21:07:00,
2013-02-06 21:12:00,36.8,34.7,30.15,NW,326,2.3,2.3,92,0.00,CLR,,0.00,0.0,WeatherDisplay:10.37,2013-02-06 21:12:00,
2013-02-06 21:17:00,36.8,35.0,30.15,NW,309,3.5,3.5,93,0.00,CLR,,0.00,0.0,WeatherDisplay:10.37,2013-02-06 21:17:00,
2013-02-06 21:22:00,36.8,35.0,30.15,NNW,329,4.6,4.6,93,0.00,CLR,,0.00,0.0,WeatherDisplay:10.37,2013-02-06 21:22:00,
2013-02-06 21:27:00,36.9,35.1,30.15,NNW,330,3.5,3.5,93,0.00,CLR,,0.00,0.0,WeatherDisplay:10.37,2013-02-06 21:27:00,
2013-02-06 21:32:00,37.0,35.2,30.15,NNW,328,6.0,6.0,93,0.00,CLR,,0.00,0.0,WeatherDisplay:10.37,2013-02-06 21:32:00,
2013-02-06 21:38:00,36.9,35.1,30.15,NW,326,5.0,5.0,93,0.00,CLR,,0.00,0.0,WeatherDisplay:10.37,2013-02-06 21:38:00,
2013-02-06 21:43:00,36.8,35.0,30.15,NW,326,5.8,5.8,93,0.00,CLR,,0.00,0.0,WeatherDisplay:10.37,2013-02-06 21:43:00,
2013-02-06 21:48:00,36.8,35.0,30.14,NW,322,3.5,3.5,93,0.00,CLR,,0.00,0.0,WeatherDisplay:10.37,2013-02-06 21:48:00,
2013-02-06 21:53:00,36.6,34.8,30.14,NW,316,2.3,2.3,93,0.00,CLR,,0.00,0.0,WeatherDisplay:10.37,2013-02-06 21:53:00,
2013-02-06 21:59:00,36.5,34.9,30.14,NW,325,2.3,2.3,94,0.00,CLR,,0.00,0.0,WeatherDisplay:10.37,2013-02-06 21:59:00,
2013-02-06 22:04:00,36.3,34.7,30.14,NNW,329,6.9,6.9,94,0.00,CLR,,0.00,0.0,WeatherDisplay:10.37,2013-02-06 22:04:00,
2013-02-06 22:09:00,36.3,34.7,30.14,NW,326,3.0,3.0,94,0.00,CLR,,0.00,0.0,WeatherDisplay:10.37,2013-02-06 22:09:00,
2013-02-06 22:14:00,36.3,34.7,30.14,NNW,335,2.3,2.3,94,0.00,CLR,,0.00,0.0,WeatherDisplay:10.37,2013-02-06 22:14:00,
2013-02-06 22:19:00,36.2,34.9,30.15,NNW,335,1.2,0.0,95,0.00,CLR,,0.00,0.0,WeatherDisplay:10.37,2013-02-06 22:19:00,
2013-02-06 22:24:00,36.0,34.7,30.15,NW,320,3.5,3.5,95,0.00,CLR,,0.00,0.0,WeatherDisplay:10.37,2013-02-06 22:24:00,
2013-02-06 22:29:00,36.0,34.7,30.15,NW,316,2.3,0.0,95,0.00,CLR,,0.00,0.0,WeatherDisplay:10.37,2013-02-06 22:29:00,
2013-02-06 22:34:00,36.0,34.7,30.15,NW,316,3.5,3.5,95,0.00,CLR,,0.00,0.0,WeatherDisplay:10.37,2013-02-06 22:34:00,
2013-02-06 22:40:00,36.0,34.7,30.15,NW,318,3.5,3.5,95,0.00,CLR,,0.00,0.0,WeatherDisplay:10.37,2013-02-06 22:40:00,
2013-02-06 22:45:00,36.0,34.7,30.15,WNW,301,1.0,0.0,95,0.00,CLR,,0.00,0.0,WeatherDisplay:10.37,2013-02-06 22:45:00,
2013-02-06 22:50:00,35.9,34.6,30.15,WNW,299,0.0,0.0,95,0.00,CLR,,0.00,0.0,WeatherDisplay:10.37,2013-02-06 22:50:00,
2013-02-06 22:55:00,35.8,34.8,30.15,NW,304,1.2,1.2,96,0.00,CLR,,0.00,0.0,WeatherDisplay:10.37,2013-02-06 22:55:00,
2013-02-06 23:00:00,35.6,34.6,30.15,WNW,302,0.0,3.0,96,0.00,CLR,,0.00,0.0,WeatherDisplay:10.37,2013-02-06 23:00:00,
2013-02-06 23:05:00,35.5,34.5,30.15,NW,306,0.0,0.0,96,0.00,CLR,,0.00,0.0,WeatherDisplay:10.37,2013-02-06 23:05:00,
2013-02-06 23:11:00,35.3,34.3,30.15,NW,305,0.0,0.0,96,0.00,CLR,,0.00,0.0,WeatherDisplay:10.37,2013-02-06 23:11:00,
2013-02-06 23:16:00,35.2,34.2,30.15,WNW,301,2.3,2.3,96,0.00,CLR,,0.00,0.0,WeatherDisplay:10.37,2013-02-06 23:16:00,
2013-02-06 23:21:00,35.0,34.0,30.15,NW,304,0.0,0.0,96,0.00,CLR,,0.00,0.0,WeatherDisplay:10.37,2013-02-06 23:21:00,
2013-02-06 23:26:00,35.0,34.2,30.15,WNW,298,1.2,1.2,97,0.00,CLR,,0.00,0.0,WeatherDisplay:10.37,2013-02-06 23:26:00,
2013-02-06 23:31:00,34.9,34.1,30.15,WNW,302,0.0,0.0,97,0.00,CLR,,0.00,0.0,WeatherDisplay:10.37,2013-02-06 23:31:00,
2013-02-06 23:36:00,34.7,33.9,30.14,WNW,294,0.0,0.0,97,0.00,CLR,,0.00,0.0,WeatherDisplay:10.37,2013-02-06 23:36:00,
2013-02-06 23:41:00,34.6,33.8,30.15,WNW,298,0.0,0.0,97,0.00,CLR,,0.00,0.0,WeatherDisplay:10.37,2013-02-06 23:41:00,
2013-02-06 23:47:00,34.6,34.1,30.15,NW,311,2.3,2.3,98,0.00,CLR,,0.00,0.0,WeatherDisplay:10.37,2013-02-06 23:47:00,
2013-02-06 23:52:00,35.0,34.7,30.15,NNW,346,2.3,2.3,99,0.00,,,0.00,0.0,WeatherDisplay:10.37,2013-02-06 23:52:00,
2013-02-06 23:57:00,35.5,35.2,30.15,NW,323,2.3,2.3,99,0.00,,,0.00,0.0,WeatherDisplay:10.37,2013-02-06 23:57:00,